Location: Unspecified
(49.9820°N, 20.4363°E)
Time: 14:56:41
(UTC+02:00)

ISS - Visible Passes

Search period start: 21 May 2018 00:00
Search period end: 31 May 2018 00:00
Orbit: 402 x 407 km, 51.6° (Epoch: 22 May)

Date Brightness Start Highest point End Pass type
(mag) Time Alt. Az. Time Alt. Az. Time Alt. Az.
21 May -3.4 00:47:03 10° W 00:50:19 63° N 00:53:34 10° E visible
21 May -4.0 02:23:39 10° WNW 02:26:56 86° SSW 02:30:12 10° ESE visible
21 May -2.6 04:00:27 10° W 04:03:07 23° SW 04:05:46 10° SSE visible
21 May -3.6 22:18:30 10° SW 22:21:38 45° SSE 22:24:47 10° ENE visible
21 May -3.6 23:54:48 10° W 23:58:05 69° N 00:01:20 10° ENE visible
22 May -3.7 01:31:27 10° WNW 01:34:44 75° NNE 01:38:00 10° E visible
22 May -3.3 03:08:03 10° W 03:11:05 35° SSW 03:14:06 10° SE visible
22 May -3.0 21:26:40 10° SSW 21:29:34 29° SSE 21:32:28 10° E visible
22 May -3.8 23:02:34 10° WSW 23:05:51 82° NNW 23:09:08 10° ENE visible
23 May -3.5 00:39:14 10° WNW 00:42:29 65° N 00:45:45 10° E visible
23 May -3.8 02:15:46 10° WNW 02:18:58 54° SSW 02:22:10 10° SE visible
23 May -1.9 03:53:29 10° WSW 03:54:54 12° SW 03:56:18 10° SSW visible
23 May -4.0 22:10:22 10° WSW 22:13:38 76° SSE 22:16:55 10° ENE visible
23 May -3.4 23:46:58 10° W 23:50:13 62° N 23:53:29 10° E visible
24 May -4.0 01:23:32 10° WNW 01:26:48 78° SSW 01:27:52 39° ESE visible
24 May-1.303:07:32SSE03:07:32SSE03:00:16Wvisible
24 May -3.7 21:18:16 10° SW 21:21:28 52° SSE 21:24:40 10° ENE visible
24 May -3.5 22:54:40 10° W 22:57:57 66° N 23:01:12 10° ENE visible
25 May -3.8 00:31:18 10° WNW 00:34:35 81° NNE 00:35:39 39° E visible
25 May -1.4 02:07:57 10° W 02:08:14 12° W 02:08:14 12° W visible
25 May -3.7 22:02:23 10° W 22:05:40 76° NNW 22:08:56 10° ENE visible
25 May -3.6 23:39:03 10° WNW 23:42:19 68° N 23:44:32 19° E visible
26 May -2.2 01:15:36 10° WNW 01:17:08 24° W 01:17:08 24° W visible
26 May -3.9 21:10:08 10° WSW 21:13:25 84° SSE 21:16:42 10° ENE visible
26 May -3.4 22:46:46 10° W 22:50:01 62° N 22:53:16 10° E visible
27 May -3.8 00:23:18 10° WNW 00:26:17 63° WSW 00:26:17 63° WSW visible
27 May -3.4 21:54:26 10° W 21:57:42 64° N 22:00:58 10° ENE visible
27 May -3.9 23:31:02 10° WNW 23:34:19 88° NNE 23:35:31 36° ESE visible
28 May -1.3 01:07:45 10° W 01:08:08 12° W 01:08:08 12° W visible
28 May -3.6 22:38:45 10° WNW 22:42:01 72° N 22:44:49 13° E visible
29 May -2.7 00:15:19 10° W 00:17:26 31° WSW 00:17:26 31° WSW visible
29 May -3.4 21:46:26 10° W 21:49:41 64° N 21:52:57 10° E visible
29 May -3.8 23:22:59 10° WNW 23:26:13 60° SSW 23:26:46 50° SSE visible
30 May -3.9 22:30:39 10° WNW 22:33:56 85° SSW 22:36:08 19° ESE visible
